Hourly Data Report for October 29, 2016

All times are specified in Local Standard Time (LST). Add 1 hour to adjust for Daylight Saving Time where and when it is observed.

SAINT JOHN A
NEW BRUNSWICK

45°18'58.000" N
65°53'24.000" W
108.80 m
8104901
71609
YSJ

Download Data

Hourly Data (October 2016)
Hourly Data Report for October 29, 2016
Temp Definition
°C
Dew Point Temp Definition
°C
Rel Hum Definition
%
Wind Dir Definition
10's deg

Wind Spd Definition
km/h
Visibility Definition
km
Stn Press Definition
kPa
Hmdx Definition


Wind Chill Definition


Weather Definition


TIME
00:00 Legend Double Dagger 4.1 4.1 100 1 24 12.9 100.25     Rain
01:00 Legend Double Dagger 4.2 4.2 100 1 19 12.9 100.16     LegendNANA
02:00 Legend Double Dagger 4.7 4.7 100 1 24 9.7 100.09     Rain
03:00 Legend Double Dagger 5.4 5.4 100 1 25 8.1 100.06     Rain
04:00 Legend Double Dagger 5.3 5.3 100 36 29 4.8 100.06     Rain,Fog
05:00 Legend Double Dagger 5.8 5.8 100 1 27 4.8 100.03     Rain,Fog
06:00 Legend Double Dagger 6.0 6.0 100 1 34 6.4 100.03     Rain,Fog
07:00 Legend Double Dagger 6.1 6.1 100 1 27 4.8 99.97     Rain,Fog
08:00 Legend Double Dagger 6.6 6.6 100 1 26 9.7 99.95     Rain,Fog
09:00 Legend Double Dagger 7.0 7.0 100 36 23 4.8 100.00     Rain,Fog
10:00 Legend Double Dagger 7.4 7.4 100 36 21 4.8 100.00     Rain,Fog
11:00 Legend Double Dagger 8.2 8.2 100 36 27 6.4 99.96     Rain,Fog
12:00 Legend Double Dagger 8.4 8.4 100 36 24 6.4 99.87     Rain,Fog
13:00 Legend Double Dagger 8.7 8.7 100 35 18 4.8 99.80     Rain,Fog
14:00 Legend Double Dagger 8.9 8.9 100 35 16 4.8 99.73     Rain,Fog
15:00 Legend Double Dagger 8.5 8.5 100 32 17 4.8 99.72     Rain,Fog
16:00 Legend Double Dagger 8.1 8.1 100 34 11 3.2 99.70     Rain,Fog
17:00 Legend Double Dagger 7.7 7.7 100 34 15 4.8 99.65     Fog
18:00 Legend Double Dagger 7.4 7.4 100 32 12 3.2 99.62     Fog
19:00 Legend Double Dagger 7.3 7.3 100 29 7 3.2 99.59     Rain
20:00 Legend Double Dagger 7.1 7.1 100 29 8 2.4 99.53     Rain,Fog
21:00 Legend Double Dagger 6.9 6.9 100 24 7 1.2 99.46     Fog
22:00 Legend Double Dagger 6.9 6.9 100 21 4 8.1 99.37     Fog
23:00 Legend Double Dagger 7.1 7.1 100 24 11 4.8 99.37     Rain,Fog

Notes on Data Quality.

Legend

  • E = Estimated
  • M = Missing
  • NA = Not Available
  • ‡ = Partner data that is not subject to review by the National Climate Archives
Date modified: